This is the latest recevied weather packets stored in our database for station/object IZ5MMH-1. If no packets are shown the sender has not sent any weather packets the latest 10 day(s).
| Time | Temp. | Humidity | Pressure | Rain* | Wind** | Luminosity | Snow |
|---|---|---|---|---|---|---|---|
| 1787485097 | 35° C | 28% | 1017 hPa | - | - | - | - |
| 1787484496 | 35° C | 29% | 1017 hPa | - | - | - | - |
| 1787483897 | 35° C | 27% | 1017 hPa | - | - | - | - |
| 1787483296 | 35.56° C | 28% | 1017 hPa | - | - | - | - |
| 1787482696 | 35° C | 27% | 1017.2 hPa | - | - | - | - |
| 1787482097 | 35° C | 29% | 1017.2 hPa | - | - | - | - |
| 1787481497 | 35° C | 29% | 1017 hPa | - | - | - | - |
| 1787480896 | 34.44° C | 30% | 1017.1 hPa | - | - | - | - |
| 1787480296 | 33.89° C | 31% | 1017.3 hPa | - | - | - | - |
| 1787479696 | 34.44° C | 32% | 1017.4 hPa | - | - | - | - |
| 1787479126 | 33.89° C | 32% | 1017.3 hPa | - | - | - | - |
| 1787478496 | 33.89° C | 32% | 1017.6 hPa | - | - | - | - |
| 1787477897 | 33.89° C | 31% | 1017.6 hPa | - | - | - | - |
| 1787477297 | 33.89° C | 29% | 1017.6 hPa | - | - | - | - |
| 1787476696 | 33.33° C | 28% | 1017.7 hPa | - | - | - | - |
| 1787476097 | 33.33° C | 28% | 1017.7 hPa | - | - | - | - |
| 1787475496 | 33.33° C | 27% | 1017.6 hPa | - | - | - | - |
| 1787474896 | 32.78° C | 29% | 1017.6 hPa | - | - | - | - |
| 1787474296 | 32.22° C | 30% | 1017.6 hPa | - | - | - | - |
| 1787473696 | 32.22° C | 29% | 1017.6 hPa | - | - | - | - |
| 1787473096 | 31.67° C | 31% | 1017.6 hPa | - | - | - | - |
| 1787472497 | 31.11° C | 31% | 1017.5 hPa | - | - | - | - |
| 1787471897 | 30.56° C | 33% | 1017.7 hPa | - | - | - | - |
| 1787471296 | 30° C | 33% | 1017.6 hPa | - | - | - | - |
| 1787470697 | 30° C | 36% | 1017.6 hPa | - | - | - | - |
* Rain since midnight (hover to see other rain measurements)
** Current wind speed in m/s (hover to see current wind gust speed)